Location: Colonial Hills
(40.5656°N, 77.6119°W)
Time: 06:52:52
(UTC+00:00)

Hubble Space Telescope - Visible Passes

Search period start: 26 November 2020 00:00
Search period end: 06 December 2020 00:00
Orbit: 536 x 540 km, 28.5° (Epoch: 25 November)

Date Brightness Start Highest point End Pass type
(mag) Time Alt. Az. Time Alt. Az. Time Alt. Az.
04 Dec 3.6 00:27:39 10° SSW 00:28:06 11° SSW 00:28:06 11° SSW visible
04 Dec 3.3 22:37:30 10° S 22:38:42 11° SSE 22:39:55 10° SSE visible
05 Dec 3.4 00:16:42 10° SW 00:17:56 14° SSW 00:17:56 14° SSW visible
05 Dec 3.3 22:26:03 10° SSW 22:27:47 12° S 22:29:32 10° SE visible
